S5 DEB, 44066

Orbit data source: Space-Track

S5 DEB, 44066 is space debris in GEO originally from a launch on Fri, 22 Feb 2019 UTC launched from the Air Force Eastern Test Range (AFETR). Debris objects in space refer to the collection of defunct objects orbiting the Earth. Examples of debris include non-operational satellites, rocket bodies, and fragments generated from explosions, collisions, or faulty payload assembly.

Loading next visibility...
Identifier
44066, 2019-009E
Orbit
GEO
Country
Flag of USUS
Related business
Manufacturer
Spaceflight Ind
Mission
Spacecraft
Bus & Motor
Unknown
Mass
~30 kg wet, ~30 kg dry
Launch date (UTC)
2019-02-22 (7 years ago)
Launch vehicle
Unknown
Launch site
Air Force Eastern Test Range (AFETR)
Object type
Payload
Rocket body
Debris
Shape & HBR
Cone, 0.5 m
Radar Cross Section
0.635 m², Large (>1 m²)

Expand to show TLE details & history
Last TLE update: 1 day ago

TLE from 1 day ago
0 S5 DEB
1 44066U 19009E   26206.66350790  .00000052  00000-0  00000-0 0  9998
2 44066   6.6810  70.4874 0005348 144.1415 215.8794  0.98983322 26742
Epoch: 2026-07-25T15:55Z
TLE epoch observation values (Epoch: 2026-07-25T15:55:27.082Z)
Latitude
0.00001°
Longitude
-111.75496°
Altitude
36,169.575 km
Speed
3.06 km/s
True Right ascension
04h 41m 55s
True Declination
0° 00' 00"
Sunlit
Object was in daylight at epoch
Visualization orbit readout
Latitude
Unknown
Longitude
Unknown
Altitude
Unknown
Speed
Unknown
Apparent Right ascension
Unknown
Apparent Declination
Unknown
Sunlit
N/A
Visualization observer readout
Local Sidereal Time
05:30:40
Azimuth
Unknown
Elevation
Unknown
Doppler factor
Unknown
Orbital elements
Apogee altitude
36,175.497 km
Perigee altitude
36,130.006 km
Semi-major axis
42,530.888 km
Eccentricity
0.00053
Inclination
6.681°
RAAN
70.4874°
Arg. of periapsis
144.1415°
True anomaly
215.8435°
Mean anomaly
215.8794°
Eccentric anomaly
215.86145°
Mean motion
0.24745 °/min
Orbital period
1,454.84 mins
BSTAR
0
Loading maneuver chart data...
Computing Atmospheric mass density...
Loading historical data...
Loading historical data...
Loading historical data...
Loading historical data...
Loading historical data...
Loading historical data...
Loading historical data...
Other satellites on launch #9 in the year 2019 (2019-02-22 UTC)

Documentation

Showing up to 5 results
|